Track COSMOS 2425 (GLONASS) now! COSMOS 2425 (GLONASS) is classified as:
1 29670U 06062A 23083.45950634 .00000026 00000-0 00000-0 0 9998 2 29670 64.7275 233.7122 0024384 348.3802 12.9114 2.13111337126421